| time (UTC) | temp F | wind direction | speed MPH | gust MPH | rain 1hr in | rain 24hr in | rain mn in | humidity % | barometer mb |
| 20260903171541 | 59 | 0 | 0.0 | 7.0 | 0.00 | 0.20 | 0.20 | 76 | 1006.0 |
| 20260903171018 | 59 | 0 | 0.0 | 7.0 | 0.00 | 0.20 | 0.20 | 76 | 1006.1 |
| 20260903170520 | 59 | 0 | 0.0 | 1.0 | 0.00 | 0.20 | 0.20 | 74 | 1006.1 |
| 20260903170035 | 60 | 0 | 0.0 | 4.0 | 0.00 | 0.20 | 0.20 | 74 | 1006.2 |
| 20260903165517 | 60 | 0 | 0.0 | 4.0 | 0.00 | 0.20 | 0.20 | 73 | 1006.3 |
| 20260903165018 | 60 | 0 | 0.0 | 5.0 | 0.00 | 0.20 | 0.20 | 72 | 1006.3 |
| 20260903164536 | 60 | 0 | 0.0 | 5.0 | 0.00 | 0.20 | 0.20 | 71 | 1006.2 |
| 20260903164017 | 60 | 0 | 0.0 | 7.0 | 0.00 | 0.20 | 0.20 | 71 | 1006.3 |
| 20260903163516 | 60 | 0 | 0.0 | 7.0 | 0.00 | 0.20 | 0.20 | 71 | 1006.3 |
| 20260903163035 | 60 | 0 | 0.0 | 7.0 | 0.00 | 0.20 | 0.20 | 71 | 1006.2 |
| 20260903162518 | 60 | 0 | 0.0 | 4.0 | 0.00 | 0.20 | 0.20 | 71 | 1006.1 |
| 20260903162019 | 60 | 0 | 0.0 | 4.0 | 0.00 | 0.20 | 0.20 | 71 | 1006.2 |
| 20260903161531 | 60 | 0 | 0.0 | 4.0 | 0.00 | 0.20 | 0.20 | 71 | 1006.4 |
| 20260903161019 | 60 | 0 | 0.0 | 10.0 | 0.00 | 0.20 | 0.20 | 71 | 1006.4 |
| 20260903160518 | 60 | 0 | 0.0 | 14.0 | 0.00 | 0.20 | 0.20 | 70 | 1006.7 |
| 20260903160038 | 60 | 244 | 0.0 | 14.0 | 0.00 | 0.20 | 0.20 | 70 | 1006.6 |
| 20260903155518 | 60 | 0 | 0.0 | 8.0 | 0.00 | 0.20 | 0.20 | 70 | 1006.7 |
| 20260903155017 | 60 | 249 | 0.0 | 8.0 | 0.00 | 0.20 | 0.20 | 71 | 1006.5 |
| 20260903154534 | 60 | 252 | 0.0 | 4.0 | 0.00 | 0.20 | 0.20 | 71 | 1006.5 |
| 20260903154016 | 60 | 240 | 0.0 | 7.0 | 0.00 | 0.20 | 0.20 | 71 | 1006.5 |
| 20260903153519 | 60 | 0 | 0.0 | 7.0 | 0.00 | 0.20 | 0.20 | 71 | 1006.6 |
| 20260903153034 | 60 | 0 | 0.0 | 7.0 | 0.00 | 0.20 | 0.20 | 71 | 1006.7 |
| 20260903152518 | 60 | 0 | 0.0 | 10.0 | 0.00 | 0.20 | 0.20 | 70 | 1006.7 |
| 20260903152018 | 61 | 0 | 0.0 | 10.0 | 0.00 | 0.20 | 0.20 | 71 | 1006.8 |
| 20260903151532 | 61 | 0 | 2.0 | 10.0 | 0.00 | 0.20 | 0.20 | 70 | 1006.9 |
| 20260903151015 | 61 | 249 | 1.0 | 9.0 | 0.00 | 0.20 | 0.20 | 70 | 1006.9 |
| 20260903150517 | 61 | 0 | 2.0 | 9.0 | 0.00 | 0.20 | 0.20 | 69 | 1006.9 |
| 20260903150034 | 62 | 0 | 0.0 | 9.0 | 0.00 | 0.20 | 0.20 | 70 | 1007.0 |
| 20260903145517 | 62 | 0 | 0.0 | 16.0 | 0.00 | 0.20 | 0.20 | 69 | 1007.0 |
| 20260903145020 | 62 | 236 | 1.0 | 16.0 | 0.00 | 0.20 | 0.20 | 67 | 1006.9 |
| 20260903144535 | 62 | 267 | 2.0 | 13.0 | 0.00 | 0.20 | 0.20 | 68 | 1007.0 |
| 20260903144016 | 63 | 0 | 2.0 | 10.0 | 0.00 | 0.20 | 0.20 | 68 | 1007.0 |
| 20260903143515 | 63 | 0 | 0.0 | 10.0 | 0.00 | 0.20 | 0.20 | 68 | 1006.9 |
| 20260903143033 | 63 | 0 | 0.0 | 10.0 | 0.00 | 0.20 | 0.20 | 67 | 1006.9 |
| 20260903142519 | 63 | 0 | 0.0 | 8.0 | 0.00 | 0.20 | 0.20 | 67 | 1006.9 |
| 20260903142017 | 63 | 263 | 1.0 | 8.0 | 0.00 | 0.20 | 0.20 | 66 | 1007.0 |
| 20260903141533 | 63 | 0 | 0.0 | 9.0 | 0.00 | 0.20 | 0.20 | 65 | 1007.0 |
| 20260903141015 | 63 | 0 | 0.0 | 9.0 | 0.00 | 0.20 | 0.20 | 64 | 1006.9 |
| 20260903140514 | 63 | 0 | 0.0 | 6.0 | 0.00 | 0.20 | 0.20 | 65 | 1007.1 |
| 20260903140034 | 63 | 0 | 0.0 | 6.0 | 0.00 | 0.20 | 0.20 | 63 | 1006.8 |
| 20260903135516 | 63 | 0 | 0.0 | 0.0 | 0.00 | 0.20 | 0.20 | 64 | 1006.8 |
| 20260903135016 | 63 | 0 | 0.0 | 8.0 | 0.00 | 0.20 | 0.20 | 64 | 1006.8 |
| 20260903134531 | 63 | 0 | 0.0 | 8.0 | 0.00 | 0.20 | 0.20 | 64 | 1006.9 |
| 20260903134015 | 63 | 0 | 0.0 | 8.0 | 0.00 | 0.20 | 0.20 | 62 | 1006.9 |
| 20260903133516 | 63 | 0 | 0.0 | 6.0 | 0.00 | 0.20 | 0.20 | 62 | 1007.0 |
| 20260903133035 | 63 | 0 | 0.0 | 5.0 | 0.00 | 0.20 | 0.20 | 61 | 1007.2 |
| 20260903132519 | 64 | 0 | 0.0 | 6.0 | 0.00 | 0.20 | 0.20 | 61 | 1007.2 |
| 20260903132015 | 64 | 0 | 0.0 | 6.0 | 0.00 | 0.20 | 0.20 | 60 | 1007.3 |
| 20260903131535 | 64 | 0 | 0.0 | 6.0 | 0.00 | 0.20 | 0.20 | 61 | 1007.1 |
| 20260903131018 | 64 | 0 | 0.0 | 4.0 | 0.00 | 0.20 | 0.20 | 61 | 1007.3 |
| 20260903130520 | 64 | 0 | 0.0 | 8.0 | 0.00 | 0.20 | 0.20 | 61 | 1007.3 |
| 20260903130035 | 63 | 0 | 0.0 | 8.0 | 0.00 | 0.20 | 0.20 | 61 | 1007.2 |
| 20260903125514 | 63 | 290 | 1.0 | 11.0 | 0.00 | 0.20 | 0.20 | 61 | 1007.4 |
| 20260903125017 | 63 | 0 | 2.0 | 11.0 | 0.00 | 0.20 | 0.20 | 60 | 1007.4 |
| 20260903124535 | 63 | 0 | 0.0 | 11.0 | 0.00 | 0.20 | 0.20 | 62 | 1007.3 |
| 20260903124018 | 63 | 0 | 1.0 | 11.0 | 0.00 | 0.20 | 0.20 | 61 | 1007.3 |
| 20260903123520 | 63 | 294 | 1.0 | 10.0 | 0.00 | 0.20 | 0.20 | 61 | 1007.4 |
| 20260903123035 | 64 | 0 | 1.0 | 10.0 | 0.00 | 0.20 | 0.20 | 60 | 1007.4 |
| 20260903122519 | 64 | 0 | 0.0 | 11.0 | 0.00 | 0.20 | 0.20 | 61 | 1007.2 |
| 20260903122016 | 64 | 292 | 1.0 | 11.0 | 0.00 | 0.20 | 0.20 | 60 | 1007.1 |
| 20260903121542 | 64 | 0 | 2.0 | 12.0 | 0.00 | 0.20 | 0.20 | 60 | 1007.2 |
| 20260903121016 | 64 | 0 | 1.0 | 13.0 | 0.00 | 0.20 | 0.20 | 61 | 1007.1 |
| 20260903120517 | 63 | 0 | 3.0 | 13.0 | 0.00 | 0.20 | 0.20 | 62 | 1007.3 |
| 20260903120044 | 63 | 0 | 2.0 | 14.0 | 0.00 | 0.20 | 0.20 | 63 | 1007.2 |
| 20260903115517 | 63 | 296 | 4.0 | 14.0 | 0.00 | 0.20 | 0.20 | 61 | 1007.2 |
| 20260903115017 | 63 | 284 | 4.0 | 16.0 | 0.00 | 0.20 | 0.20 | 61 | 1007.3 |
| 20260903114608 | 62 | 283 | 5.0 | 16.0 | 0.00 | 0.20 | 0.20 | 61 | 1007.3 |
| 20260903114016 | 62 | 275 | 3.0 | 12.0 | 0.00 | 0.20 | 0.20 | 62 | 1007.2 |
| 20260903113518 | 62 | 275 | 2.0 | 14.0 | 0.00 | 0.20 | 0.20 | 63 | 1007.2 |
| 20260903113033 | 62 | 283 | 4.0 | 14.0 | 0.00 | 0.20 | 0.20 | 61 | 1007.2 |
| 20260903112517 | 62 | 271 | 3.0 | 19.0 | 0.00 | 0.20 | 0.20 | 62 | 1007.1 |
| 20260903112018 | 63 | 0 | 5.0 | 19.0 | 0.00 | 0.20 | 0.20 | 60 | 1007.1 |
| 20260903111534 | 63 | 298 | 7.0 | 18.0 | 0.00 | 0.20 | 0.20 | 60 | 1007.1 |
| 20260903111017 | 63 | 238 | 2.0 | 14.0 | 0.00 | 0.20 | 0.20 | 60 | 1007.2 |
| 20260903110519 | 63 | 0 | 3.0 | 13.0 | 0.00 | 0.20 | 0.20 | 59 | 1007.0 |
| 20260903110035 | 63 | 0 | 2.0 | 14.0 | 0.00 | 0.20 | 0.20 | 58 | 1007.0 |
| 20260903105514 | 63 | 290 | 3.0 | 14.0 | 0.00 | 0.20 | 0.20 | 60 | 1007.0 |
| 20260903105018 | 63 | 0 | 2.0 | 14.0 | 0.00 | 0.20 | 0.20 | 60 | 1007.0 |
| 20260903104535 | 63 | 0 | 1.0 | 23.0 | 0.00 | 0.20 | 0.20 | 63 | 1007.0 |
| 20260903104015 | 63 | 267 | 4.0 | 23.0 | 0.00 | 0.20 | 0.20 | 61 | 1007.1 |
| 20260903103518 | 63 | 266 | 5.0 | 16.0 | 0.00 | 0.20 | 0.20 | 61 | 1007.1 |
| 20260903103032 | 63 | 315 | 4.0 | 18.0 | 0.00 | 0.20 | 0.20 | 63 | 1006.7 |
| 20260903102515 | 62 | 302 | 6.0 | 18.0 | 0.00 | 0.20 | 0.20 | 64 | 1006.8 |
| 20260903102020 | 62 | 0 | 4.0 | 16.0 | 0.00 | 0.20 | 0.20 | 63 | 1006.7 |
| 20260903101531 | 63 | 273 | 5.0 | 16.0 | 0.00 | 0.20 | 0.20 | 62 | 1006.8 |
| 20260903101017 | 63 | 0 | 5.0 | 16.0 | 0.00 | 0.20 | 0.20 | 62 | 1006.8 |
| 20260903100515 | 64 | 280 | 3.0 | 14.0 | 0.00 | 0.20 | 0.20 | 62 | 1006.7 |
| 20260903100044 | 64 | 299 | 2.0 | 12.0 | 0.00 | 0.20 | 0.20 | 63 | 1006.6 |
| 20260903095518 | 64 | 288 | 1.0 | 11.0 | 0.00 | 0.20 | 0.20 | 63 | 1006.8 |
| 20260903095019 | 63 | 286 | 0.0 | 14.0 | 0.00 | 0.20 | 0.20 | 64 | 1006.8 |
| 20260903094535 | 63 | 256 | 2.0 | 15.0 | 0.00 | 0.20 | 0.20 | 61 | 1006.8 |
| 20260903094017 | 63 | 248 | 3.0 | 15.0 | 0.00 | 0.20 | 0.20 | 62 | 1006.8 |
| 20260903093515 | 63 | 292 | 3.0 | 15.0 | 0.00 | 0.20 | 0.20 | 63 | 1007.0 |
| 20260903093033 | 63 | 281 | 2.0 | 11.0 | 0.00 | 0.20 | 0.20 | 64 | 1007.1 |
| 20260903092519 | 63 | 287 | 2.0 | 11.0 | 0.00 | 0.20 | 0.20 | 63 | 1006.9 |
| 20260903092020 | 63 | 272 | 3.0 | 11.0 | 0.00 | 0.20 | 0.20 | 65 | 1006.9 |
| 20260903091531 | 63 | 0 | 2.0 | 16.0 | 0.00 | 0.20 | 0.20 | 65 | 1007.0 |
| 20260903091016 | 62 | 282 | 2.0 | 17.0 | 0.00 | 0.20 | 0.20 | 66 | 1006.9 |
| 20260903090518 | 63 | 288 | 6.0 | 17.0 | 0.00 | 0.20 | 0.20 | 65 | 1006.7 |
| 20260903090034 | 63 | 318 | 3.0 | 14.0 | 0.00 | 0.20 | 0.20 | 65 | 1006.7 |
| 20260903085515 | 62 | 0 | 0.0 | 10.0 | 0.00 | 0.20 | 0.20 | 69 | 1006.5 |
| 20260903085015 | 62 | 0 | 1.0 | 10.0 | 0.00 | 0.20 | 0.20 | 68 | 1006.7 |
| 20260903084532 | 62 | 0 | 0.0 | 12.0 | 0.00 | 0.20 | 0.20 | 69 | 1006.5 |
| 20260903084016 | 61 | 0 | 2.0 | 14.0 | 0.00 | 0.20 | 0.20 | 69 | 1006.6 |
| 20260903083518 | 61 | 291 | 2.0 | 14.0 | 0.00 | 0.20 | 0.20 | 69 | 1006.7 |
| 20260903083041 | 61 | 265 | 3.0 | 14.0 | 0.00 | 0.20 | 0.20 | 69 | 1006.6 |
| 20260903082517 | 60 | 260 | 3.0 | 16.0 | 0.00 | 0.20 | 0.20 | 69 | 1006.5 |
| 20260903082020 | 60 | 279 | 5.0 | 16.0 | 0.00 | 0.20 | 0.20 | 69 | 1006.4 |
| 20260903081529 | 60 | 0 | 2.0 | 10.0 | 0.01 | 0.20 | 0.20 | 70 | 1006.4 |
| 20260903081015 | 60 | 0 | 2.0 | 10.0 | 0.01 | 0.20 | 0.20 | 71 | 1006.5 |
| 20260903080517 | 60 | 0 | 0.0 | 9.0 | 0.01 | 0.20 | 0.20 | 71 | 1006.6 |
| 20260903080033 | 59 | 0 | 0.0 | 9.0 | 0.01 | 0.20 | 0.20 | 73 | 1006.7 |
| 20260903075519 | 59 | 326 | 1.0 | 13.0 | 0.01 | 0.20 | 0.20 | 72 | 1006.7 |
| 20260903075018 | 59 | 0 | 1.0 | 13.0 | 0.01 | 0.20 | 0.20 | 73 | 1006.5 |
| 20260903074532 | 59 | 271 | 3.0 | 13.0 | 0.01 | 0.20 | 0.20 | 72 | 1006.4 |
| 20260903074018 | 58 | 0 | 2.0 | 10.0 | 0.01 | 0.20 | 0.20 | 73 | 1006.3 |
| 20260903073517 | 58 | 0 | 1.0 | 10.0 | 0.01 | 0.20 | 0.20 | 73 | 1006.2 |
| 20260903073041 | 58 | 0 | 0.0 | 11.0 | 0.01 | 0.20 | 0.20 | 74 | 1006.4 |
| 20260903072518 | 58 | 275 | 2.0 | 14.0 | 0.01 | 0.20 | 0.20 | 74 | 1006.2 |
| 20260903072017 | 57 | 299 | 1.0 | 14.0 | 0.01 | 0.20 | 0.20 | 75 | 1006.1 |
| 20260903071532 | 57 | 271 | 2.0 | 13.0 | 0.00 | 0.19 | 0.19 | 76 | 1006.0 |
| 20260903071014 | 57 | 0 | 2.0 | 18.0 | 0.00 | 0.19 | 0.19 | 76 | 1006.0 |
| 20260903070518 | 57 | 0 | 5.0 | 19.0 | 0.00 | 0.19 | 0.19 | 77 | 1006.0 |
| 20260903070032 | 57 | 284 | 5.0 | 19.0 | 0.00 | 0.19 | 0.19 | 79 | 1006.1 |
| 20260903065516 | 56 | 295 | 3.0 | 15.0 | 0.00 | 0.19 | 0.19 | 81 | 1005.8 |
| 20260903065021 | 56 | 0 | 4.0 | 13.0 | 0.00 | 0.19 | 0.19 | 83 | 1005.8 |
| 20260903064534 | 56 | 0 | 3.0 | 15.0 | 0.00 | 0.19 | 0.19 | 84 | 1005.5 |
| 20260903064019 | 56 | 286 | 3.0 | 15.0 | 0.00 | 0.19 | 0.19 | 86 | 1005.4 |
| 20260903063516 | 55 | 290 | 3.0 | 17.0 | 0.00 | 0.19 | 0.19 | 86 | 1005.3 |
| 20260903063034 | 55 | 279 | 4.0 | 17.0 | 0.00 | 0.19 | 0.19 | 87 | 1005.1 |
| 20260903062517 | 55 | 277 | 6.0 | 19.0 | 0.00 | 0.19 | 0.19 | 87 | 1005.0 |
| 20260903062017 | 55 | 281 | 6.0 | 19.0 | 0.00 | 0.19 | 0.19 | 89 | 1004.8 |
| 20260903061551 | 55 | 286 | 5.0 | 14.0 | 0.00 | 0.19 | 0.19 | 89 | 1004.8 |
| 20260903061019 | 55 | 0 | 2.0 | 14.0 | 0.00 | 0.19 | 0.19 | 90 | 1004.6 |
| 20260903060515 | 54 | 0 | 1.0 | 10.0 | 0.00 | 0.19 | 0.19 | 90 | 1004.5 |
| 20260903060029 | 54 | 280 | 1.0 | 10.0 | 0.00 | 0.19 | 0.19 | 90 | 1004.5 |
| 20260903055518 | 53 | 0 | 1.0 | 10.0 | 0.00 | 0.19 | 0.19 | 90 | 1004.5 |
| 20260903055015 | 53 | 0 | 2.0 | 7.0 | 0.00 | 0.19 | 0.19 | 90 | 1004.5 |
| 20260903054534 | 53 | 0 | 0.0 | 4.0 | 0.00 | 0.19 | 0.19 | 90 | 1004.5 |
| 20260903054016 | 53 | 0 | 0.0 | 6.0 | 0.00 | 0.19 | 0.19 | 90 | 1004.5 |
| 20260903053518 | 53 | 0 | 0.0 | 6.0 | 0.00 | 0.19 | 0.19 | 91 | 1004.4 |
| 20260903053036 | 52 | 0 | 0.0 | 4.0 | 0.00 | 0.19 | 0.19 | 91 | 1004.4 |
| 20260903052516 | 52 | 257 | 0.0 | 8.0 | 0.00 | 0.19 | 0.19 | 91 | 1004.3 |
| 20260903052015 | 52 | 0 | 0.0 | 8.0 | 0.00 | 0.19 | 0.19 | 91 | 1004.2 |
| 20260903051532 | 51 | 0 | 0.0 | 3.0 | 0.00 | 0.19 | 0.19 | 90 | 1004.3 |
| 20260903051018 | 51 | 0 | 0.0 | 3.0 | 0.00 | 0.19 | 0.19 | 89 | 1004.2 |
| 20260903050517 | 52 | 0 | 0.0 | 3.0 | 0.00 | 0.19 | 0.19 | 89 | 1004.2 |
| 20260903050033 | 52 | 0 | 0.0 | 3.0 | 0.00 | 0.19 | 0.19 | 89 | 1004.2 |
| 20260903045516 | 52 | 289 | 0.0 | 3.0 | 0.00 | 0.19 | 0.19 | 88 | 1004.0 |
| 20260903045017 | 52 | 0 | 0.0 | 0.0 | 0.00 | 0.19 | 0.19 | 88 | 1003.9 |
| 20260903044531 | 53 | 0 | 0.0 | 0.0 | 0.00 | 0.19 | 0.19 | 89 | 1004.0 |
| 20260903044016 | 53 | 0 | 0.0 | 0.0 | 0.00 | 0.19 | 0.19 | 89 | 1003.9 |
| 20260903043520 | 54 | 0 | 0.0 | 0.0 | 0.00 | 0.19 | 0.19 | 89 | 1004.0 |
| 20260903043034 | 54 | 0 | 0.0 | 0.0 | 0.00 | 0.19 | 0.19 | 89 | 1003.9 |
| 20260903042520 | 54 | 0 | 0.0 | 0.0 | 0.00 | 0.19 | 0.19 | 90 | 1003.9 |
| 20260903042016 | 55 | 0 | 0.0 | 0.0 | 0.00 | 0.19 | 0.19 | 90 | 1003.9 |
| 20260903041536 | 55 | 0 | 0.0 | 0.0 | 0.00 | 0.19 | 0.19 | 90 | 1003.9 |
| 20260903041015 | 55 | 0 | 0.0 | 1.0 | 0.00 | 0.19 | 0.19 | 90 | 1003.8 |
| 20260903040515 | 55 | 0 | 0.0 | 1.0 | 0.00 | 0.19 | 0.19 | 90 | 1003.8 |
| 20260903040035 | 55 | 0 | 0.0 | 2.0 | 0.00 | 0.19 | 0.19 | 90 | 1003.8 |
| 20260903035519 | 55 | 0 | 0.0 | 6.0 | 0.00 | 0.19 | 0.19 | 91 | 1003.6 |
| 20260903035018 | 55 | 0 | 0.0 | 9.0 | 0.00 | 0.19 | 0.19 | 91 | 1003.7 |
| 20260903034532 | 55 | 0 | 1.0 | 9.0 | 0.00 | 0.19 | 0.19 | 91 | 1003.6 |
| 20260903034022 | 55 | 0 | 1.0 | 4.0 | 0.00 | 0.19 | 0.19 | 91 | 1003.6 |
| 20260903033515 | 55 | 0 | 0.0 | 4.0 | 0.00 | 0.19 | 0.19 | 91 | 1003.5 |
| 20260903033031 | 55 | 0 | 0.0 | 4.0 | 0.00 | 0.19 | 0.19 | 91 | 1003.6 |
| 20260903032518 | 55 | 288 | 0.0 | 7.0 | 0.00 | 0.19 | 0.19 | 91 | 1003.5 |
| 20260903032015 | 55 | 0 | 1.0 | 7.0 | 0.00 | 0.19 | 0.19 | 91 | 1003.4 |
| 20260903031534 | 55 | 0 | 1.0 | 7.0 | 0.00 | 0.19 | 0.19 | 91 | 1003.5 |
| 20260903031016 | 55 | 280 | 2.0 | 7.0 | 0.00 | 0.19 | 0.19 | 92 | 1003.5 |
| 20260903030516 | 55 | 275 | 1.0 | 7.0 | 0.00 | 0.19 | 0.19 | 92 | 1003.5 |
| 20260903030036 | 55 | 0 | 0.0 | 5.0 | 0.00 | 0.19 | 0.19 | 92 | 1003.7 |
| 20260903025522 | 54 | 0 | 1.0 | 6.0 | 0.00 | 0.19 | 0.19 | 92 | 1003.5 |
| 20260903025015 | 54 | 0 | 0.0 | 6.0 | 0.00 | 0.19 | 0.19 | 92 | 1003.6 |
| 20260903024536 | 54 | 0 | 0.0 | 6.0 | 0.00 | 0.19 | 0.19 | 92 | 1003.7 |
| 20260903024017 | 53 | 244 | 1.0 | 6.0 | 0.00 | 0.19 | 0.19 | 92 | 1003.6 |
| 20260903023518 | 53 | 0 | 1.0 | 3.0 | 0.00 | 0.19 | 0.19 | 91 | 1003.6 |
| 20260903023036 | 52 | 0 | 0.0 | 5.0 | 0.00 | 0.19 | 0.19 | 90 | 1003.4 |
| 20260903022518 | 52 | 0 | 0.0 | 5.0 | 0.00 | 0.19 | 0.19 | 90 | 1003.3 |
| 20260903022018 | 52 | 0 | 0.0 | 5.0 | 0.00 | 0.19 | 0.19 | 90 | 1003.5 |
| 20260903021532 | 52 | 0 | 0.0 | 0.0 | 0.00 | 0.19 | 0.19 | 89 | 1003.5 |
| 20260903021016 | 52 | 0 | 0.0 | 0.0 | 0.00 | 0.19 | 0.19 | 90 | 1003.6 |
| 20260903020516 | 53 | 0 | 0.0 | 0.0 | 0.00 | 0.19 | 0.19 | 90 | 1003.8 |
| 20260903020038 | 53 | 0 | 0.0 | 0.0 | 0.00 | 0.19 | 0.19 | 90 | 1003.9 |
| 20260903015518 | 53 | 0 | 0.0 | 0.0 | 0.00 | 0.19 | 0.19 | 89 | 1003.9 |
| 20260903015018 | 53 | 0 | 0.0 | 0.0 | 0.00 | 0.19 | 0.19 | 89 | 1003.9 |
| 20260903014546 | 53 | 0 | 0.0 | 0.0 | 0.00 | 0.19 | 0.19 | 89 | 1003.8 |
| 20260903014021 | 53 | 0 | 0.0 | 0.0 | 0.00 | 0.19 | 0.19 | 89 | 1003.9 |
| 20260903013515 | 53 | 0 | 0.0 | 0.0 | 0.00 | 0.19 | 0.19 | 89 | 1004.0 |
| 20260903013035 | 53 | 0 | 0.0 | 0.0 | 0.00 | 0.19 | 0.19 | 89 | 1003.8 |
| 20260903012522 | 54 | 0 | 0.0 | 0.0 | 0.00 | 0.19 | 0.19 | 89 | 1004.0 |
| 20260903012019 | 54 | 0 | 0.0 | 0.0 | 0.00 | 0.19 | 0.19 | 89 | 1003.9 |
| 20260903011543 | 54 | 0 | 0.0 | 0.0 | 0.00 | 0.19 | 0.19 | 89 | 1004.0 |
| 20260903011015 | 54 | 0 | 0.0 | 0.0 | 0.02 | 0.19 | 0.19 | 89 | 1004.2 |
| 20260903010515 | 54 | 0 | 0.0 | 0.0 | 0.03 | 0.19 | 0.19 | 89 | 1004.3 |
| 20260903010037 | 55 | 0 | 0.0 | 0.0 | 0.06 | 0.19 | 0.19 | 89 | 1004.4 |
| 20260903005517 | 55 | 0 | 0.0 | 0.0 | 0.07 | 0.19 | 0.19 | 90 | 1004.5 |
| 20260903005019 | 55 | 0 | 0.0 | 0.0 | 0.08 | 0.19 | 0.19 | 90 | 1004.4 |
| 20260903004533 | 55 | 0 | 0.0 | 3.0 | 0.09 | 0.19 | 0.19 | 90 | 1004.4 |
| 20260903004014 | 55 | 0 | 0.0 | 3.0 | 0.09 | 0.19 | 0.19 | 90 | 1004.4 |
| 20260903003515 | 55 | 0 | 0.0 | 0.0 | 0.10 | 0.19 | 0.19 | 91 | 1004.7 |
| 20260903003033 | 55 | 0 | 0.0 | 0.0 | 0.12 | 0.19 | 0.19 | 91 | 1004.8 |
| 20260903002519 | 55 | 0 | 0.0 | 7.0 | 0.14 | 0.19 | 0.19 | 91 | 1004.9 |
| 20260903002019 | 55 | 0 | 1.0 | 7.0 | 0.15 | 0.19 | 0.19 | 91 | 1004.9 |
| 20260903001531 | 55 | 0 | 1.0 | 4.0 | 0.19 | 0.19 | 0.19 | 91 | 1004.9 |
| 20260903001021 | 54 | 0 | 0.0 | 1.0 | 0.17 | 0.17 | 0.17 | 91 | 1005.0 |
| 20260903000518 | 54 | 0 | 0.0 | 0.0 | 0.15 | 0.15 | 0.15 | 91 | 1004.9 |
| 20260903000033 | 54 | 0 | 0.0 | 0.0 | 0.13 | 0.13 | 0.13 | 90 | 1005.0 |
| 20260902235517 | 54 | 0 | 0.0 | 0.0 | 0.12 | 0.12 | 0.12 | 90 | 1005.0 |
| 20260902235015 | 54 | 0 | 0.0 | 0.0 | 0.11 | 0.11 | 0.11 | 90 | 1005.1 |
| 20260902234534 | 54 | 0 | 0.0 | 0.0 | 0.10 | 0.10 | 0.10 | 90 | 1005.3 |
| 20260902234014 | 54 | 0 | 0.0 | 0.0 | 0.09 | 0.09 | 0.09 | 90 | 1005.3 |
| 20260902233516 | 54 | 0 | 0.0 | 0.0 | 0.09 | 0.09 | 0.09 | 90 | 1005.5 |
| 20260902233032 | 54 | 0 | 0.0 | 0.0 | 0.07 | 0.07 | 0.07 | 90 | 1005.6 |
| 20260902232518 | 54 | 0 | 0.0 | 0.0 | 0.05 | 0.05 | 0.05 | 90 | 1005.8 |
| 20260902232018 | 54 | 0 | 0.0 | 0.0 | 0.03 | 0.03 | 0.03 | 90 | 1005.9 |
| 20260902231544 | 53 | 0 | 0.0 | 0.0 | 0.00 | 0.00 | 0.00 | 90 | 1006.0 |
| 20260902231017 | 53 | 0 | 0.0 | 0.0 | 0.00 | 0.00 | 0.00 | 89 | 1006.2 |
| 20260902230521 | 53 | 0 | 0.0 | 0.0 | 0.00 | 0.00 | 0.00 | 89 | 1006.2 |
| 20260902230040 | 53 | 0 | 0.0 | 0.0 | 0.00 | 0.00 | 0.00 | 89 | 1006.4 |
| 20260902225519 | 53 | 0 | 0.0 | 0.0 | 0.00 | 0.00 | 0.00 | 89 | 1006.4 |
| 20260902225020 | 53 | 0 | 0.0 | 0.0 | 0.00 | 0.00 | 0.00 | 89 | 1006.5 |
| 20260902224537 | 53 | 0 | 0.0 | 0.0 | 0.00 | 0.00 | 0.00 | 89 | 1006.4 |
| 20260902224016 | 53 | 0 | 0.0 | 0.0 | 0.00 | 0.00 | 0.00 | 89 | 1006.3 |
| 20260902223516 | 53 | 0 | 0.0 | 0.0 | 0.00 | 0.00 | 0.00 | 89 | 1006.5 |
| 20260902223040 | 53 | 0 | 0.0 | 0.0 | 0.00 | 0.00 | 0.00 | 89 | 1006.7 |
| 20260902222519 | 53 | 0 | 0.0 | 0.0 | 0.00 | 0.00 | 0.00 | 89 | 1006.8 |
| 20260902222021 | 53 | 0 | 0.0 | 0.0 | 0.00 | 0.00 | 0.00 | 89 | 1006.9 |
| 20260902221534 | 53 | 0 | 0.0 | 0.0 | 0.00 | 0.00 | 0.00 | 89 | 1007.0 |
| 20260902221018 | 53 | 0 | 0.0 | 0.0 | 0.00 | 0.00 | 0.00 | 89 | 1007.0 |
| 20260902220516 | 53 | 0 | 0.0 | 0.0 | 0.00 | 0.00 | 0.00 | 89 | 1007.1 |
| 20260902220036 | 53 | 0 | 0.0 | 0.0 | 0.00 | 0.00 | 0.00 | 89 | 1007.2 |
| 20260902215515 | 53 | 0 | 0.0 | 0.0 | 0.00 | 0.00 | 0.00 | 89 | 1007.1 |
| 20260902215016 | 53 | 0 | 0.0 | 0.0 | 0.00 | 0.00 | 0.00 | 89 | 1007.2 |
| 20260902214537 | 53 | 0 | 0.0 | 0.0 | 0.00 | 0.00 | 0.00 | 89 | 1007.2 |
| 20260902214018 | 53 | 0 | 0.0 | 0.0 | 0.00 | 0.00 | 0.00 | 89 | 1007.2 |
| 20260902213517 | 53 | 0 | 0.0 | 0.0 | 0.00 | 0.00 | 0.00 | 89 | 1007.6 |
| 20260902213035 | 53 | 0 | 0.0 | 0.0 | 0.00 | 0.00 | 0.00 | 89 | 1007.6 |
| 20260902212518 | 53 | 0 | 0.0 | 0.0 | 0.00 | 0.00 | 0.00 | 88 | 1007.6 |
| 20260902212017 | 53 | 0 | 0.0 | 0.0 | 0.00 | 0.00 | 0.00 | 88 | 1007.7 |
| 20260902211533 | 53 | 0 | 0.0 | 0.0 | 0.00 | 0.00 | 0.00 | 88 | 1007.9 |
| 20260902211018 | 53 | 0 | 0.0 | 0.0 | 0.00 | 0.00 | 0.00 | 88 | 1007.9 |
| 20260902210519 | 53 | 0 | 0.0 | 0.0 | 0.00 | 0.00 | 0.00 | 88 | 1008.0 |
| 20260902210034 | 53 | 0 | 0.0 | 0.0 | 0.00 | 0.00 | 0.00 | 88 | 1008.0 |
| 20260902205516 | 53 | 0 | 0.0 | 0.0 | 0.00 | 0.00 | 0.00 | 88 | 1008.2 |
| 20260902205019 | 53 | 0 | 0.0 | 0.0 | 0.00 | 0.00 | 0.00 | 88 | 1008.2 |
| 20260902204533 | 53 | 0 | 0.0 | 0.0 | 0.00 | 0.00 | 0.00 | 88 | 1008.3 |
| 20260902204018 | 53 | 0 | 0.0 | 0.0 | 0.00 | 0.00 | 0.00 | 88 | 1008.5 |
| 20260902203517 | 53 | 0 | 0.0 | 0.0 | 0.00 | 0.00 | 0.00 | 88 | 1008.7 |
| 20260902203035 | 53 | 0 | 0.0 | 0.0 | 0.00 | 0.00 | 0.00 | 87 | 1008.6 |
| 20260902202517 | 53 | 0 | 0.0 | 0.0 | 0.00 | 0.00 | 0.00 | 87 | 1008.7 |
| 20260902202016 | 53 | 0 | 0.0 | 0.0 | 0.00 | 0.00 | 0.00 | 87 | 1008.6 |
| 20260902201538 | 53 | 0 | 0.0 | 0.0 | 0.00 | 0.00 | 0.00 | 87 | 1008.7 |
| 20260902201019 | 53 | 0 | 0.0 | 0.0 | 0.00 | 0.00 | 0.00 | 87 | 1008.9 |
| 20260902200519 | 53 | 0 | 0.0 | 0.0 | 0.00 | 0.00 | 0.00 | 87 | 1009.0 |
| 20260902200034 | 53 | 0 | 0.0 | 0.0 | 0.00 | 0.00 | 0.00 | 86 | 1008.9 |
| 20260902195519 | 53 | 0 | 0.0 | 0.0 | 0.00 | 0.00 | 0.00 | 86 | 1009.1 |
| 20260902195018 | 53 | 0 | 0.0 | 0.0 | 0.00 | 0.00 | 0.00 | 86 | 1009.2 |
| 20260902194547 | 53 | 0 | 0.0 | 0.0 | 0.00 | 0.00 | 0.00 | 86 | 1009.2 |
| 20260902194018 | 53 | 0 | 0.0 | 0.0 | 0.00 | 0.00 | 0.00 | 86 | 1009.2 |
| 20260902193516 | 53 | 0 | 0.0 | 0.0 | 0.00 | 0.00 | 0.00 | 86 | 1009.3 |
| 20260902193034 | 53 | 0 | 0.0 | 0.0 | 0.00 | 0.00 | 0.00 | 85 | 1009.4 |
| 20260902192517 | 53 | 0 | 0.0 | 0.0 | 0.00 | 0.00 | 0.00 | 85 | 1009.4 |
| 20260902192017 | 53 | 0 | 0.0 | 0.0 | 0.00 | 0.00 | 0.00 | 85 | 1009.5 |
| 20260902191534 | 53 | 0 | 0.0 | 1.0 | 0.00 | 0.00 | 0.00 | 85 | 1009.5 |
| 20260902191015 | 53 | 0 | 0.0 | 1.0 | 0.00 | 0.00 | 0.00 | 85 | 1009.5 |
| 20260902190514 | 53 | 0 | 0.0 | 0.0 | 0.00 | 0.00 | 0.00 | 84 | 1009.4 |
| 20260902190031 | 53 | 0 | 0.0 | 0.0 | 0.00 | 0.00 | 0.00 | 84 | 1009.5 |
| 20260902185516 | 53 | 0 | 0.0 | 0.0 | 0.00 | 0.00 | 0.00 | 84 | 1009.4 |
| 20260902185021 | 53 | 0 | 0.0 | 0.0 | 0.00 | 0.00 | 0.00 | 84 | 1009.6 |
| 20260902184539 | 53 | 0 | 0.0 | 4.0 | 0.00 | 0.00 | 0.00 | 84 | 1009.7 |
| 20260902184016 | 53 | 0 | 0.0 | 4.0 | 0.00 | 0.00 | 0.00 | 84 | 1009.7 |
| 20260902183516 | 53 | 138 | 0.0 | 4.0 | 0.00 | 0.00 | 0.00 | 84 | 1009.9 |
| 20260902183034 | 53 | 0 | 0.0 | 5.0 | 0.00 | 0.00 | 0.00 | 84 | 1009.9 |
| 20260902182516 | 54 | 0 | 1.0 | 5.0 | 0.00 | 0.00 | 0.00 | 84 | 1009.8 |
| 20260902182016 | 54 | 139 | 1.0 | 4.0 | 0.00 | 0.00 | 0.00 | 83 | 1010.0 |
| 20260902181536 | 54 | 0 | 0.0 | 4.0 | 0.00 | 0.00 | 0.00 | 83 | 1010.0 |
| 20260902181018 | 54 | 0 | 0.0 | 2.0 | 0.00 | 0.00 | 0.00 | 83 | 1010.1 |
| 20260902180516 | 54 | 0 | 0.0 | 5.0 | 0.00 | 0.00 | 0.00 | 83 | 1009.9 |
| 20260902180036 | 54 | 0 | 0.0 | 5.0 | 0.00 | 0.00 | 0.00 | 82 | 1010.1 |
| 20260902175515 | 54 | 138 | 2.0 | 5.0 | 0.00 | 0.00 | 0.00 | 82 | 1010.1 |
| 20260902175017 | 54 | 0 | 0.0 | 5.0 | 0.00 | 0.00 | 0.00 | 82 | 1010.3 |
| 20260902174532 | 54 | 0 | 0.0 | 5.0 | 0.00 | 0.00 | 0.00 | 82 | 1010.3 |
| 20260902174017 | 54 | 0 | 0.0 | 4.0 | 0.00 | 0.00 | 0.00 | 81 | 1010.4 |
| 20260902173516 | 54 | 0 | 0.0 | 4.0 | 0.00 | 0.00 | 0.00 | 82 | 1010.5 |
| 20260902173035 | 54 | 0 | 0.0 | 7.0 | 0.00 | 0.00 | 0.00 | 81 | 1010.7 |
| 20260902172518 | 54 | 0 | 0.0 | 7.0 | 0.00 | 0.00 | 0.00 | 81 | 1010.8 |
| 20260902172018 | 55 | 0 | 0.0 | 4.0 | 0.00 | 0.00 | 0.00 | 81 | 1010.8 |